GFSGL_925_spd_042.txt.gz
Wind_Speed
31 31 32 33 33 33 34 34 32 34 36 34 32 32 31 29 28 26 28 30 29 27 26 25 22 20 20 21 20 20 21 21 14 25 27 18 18 21 18 21 22 24 22
31 33 33 34 35 35 35 35 35 36 34 32 32 31 30 28 27 25 26 27 29 28 27 26 25 22 20 20 22 21 20 22 19 15 23 23 21 21 21 19 23 23 23
31 32 33 33 34 35 36 35 35 35 35 35 34 32 31 28 27 26 27 27 29 30 29 27 26 24 23 21 21 22 22 20 21 18 22 23 20 20 21 19 21 20 21
30 31 32 33 34 35 35 36 36 35 35 35 34 32 31 28 29 28 27 27 25 25 26 26 27 26 25 23 23 23 22 22 19 19 17 20 20 19 22 22 21 21 21
31 32 34 35 35 36 36 36 35 35 34 33 34 33 30 29 29 27 28 27 26 26 28 28 30 30 28 27 25 23 23 22 20 20 16 19 23 21 25 22 22 21 21
32 34 36 36 36 33 35 35 34 34 34 33 33 32 30 29 29 28 29 29 25 26 28 28 29 29 30 30 30 29 28 23 23 21 19 20 28 22 24 24 22 20 9
33 35 34 36 36 37 35 35 35 34 34 34 33 31 29 32 29 28 29 31 28 27 28 28 27 28 26 27 26 27 30 32 33 25 22 26 25 25 25 27 24 22 20
34 35 35 37 38 38 35 35 32 32 32 32 31 30 29 31 26 25 25 29 30 29 29 28 29 30 28 25 22 25 25 27 31 33 29 25 28 24 29 27 23 22 18
33 36 36 36 40 35 36 37 30 24 28 27 29 27 28 28 26 27 25 26 26 29 29 30 31 32 29 26 26 26 27 25 23 27 34 28 26 20 23 22 22 19 13
32 37 37 40 35 38 37 28 25 27 25 26 27 27 27 27 25 25 25 26 26 27 29 31 30 30 28 28 29 26 27 26 22 21 30 30 24 22 26 27 23 19 16
37 38 38 40 36 35 32 26 24 24 20 23 23 23 23 23 24 25 25 26 28 28 29 28 26 24 28 30 32 28 29 23 22 21 23 20 20 20 27 28 21 19 17
37 37 39 38 37 33 29 26 25 23 21 21 21 22 22 24 25 26 28 31 32 30 29 26 26 27 28 28 28 30 30 25 23 22 20 19 21 24 24 22 19 18 17
37 36 38 38 35 31 28 25 22 22 19 19 17 17 19 22 22 22 25 28 29 30 30 30 29 29 30 29 30 32 29 26 23 22 20 21 23 21 20 18 16 16 15
35 37 36 35 34 32 28 24 20 19 18 19 16 16 18 19 20 22 22 24 26 28 27 29 32 31 26 28 26 30 29 27 25 20 20 20 19 18 17 16 15 14 13
35 36 35 32 32 30 28 24 22 21 20 20 21 22 22 23 25 27 27 26 25 20 28 33 28 26 19 15 14 25 24 21 18 18 18 18 18 16 15 14 13 13 11
33 33 33 32 31 29 26 24 20 22 24 24 26 27 28 33 38 36 35 33 32 28 17 4 14 19 17 21 21 20 19 17 15 15 15 14 14 13 13 14 14 14 13
34 33 32 31 29 27 26 20 13 17 18 22 23 23 25 13 10 7 13 7 11 20 16 22 22 21 22 21 19 17 15 10 9 9 10 11 11 11 12 12 15 17 13
34 34 29 29 27 26 24 16 14 14 15 21 14 8 25 30 30 31 33 35 30 29 26 24 24 23 20 19 16 14 11 8 7 7 6 7 8 10 11 13 17 16 15
32 30 30 26 26 26 24 16 14 14 16 18 22 25 27 29 28 28 28 27 25 25 25 24 22 21 18 17 14 10 7 6 4 3 4 6 8 11 12 17 17 18 16
32 33 30 26 25 24 22 16 15 18 20 19 19 18 20 24 23 24 26 27 26 25 25 24 21 19 17 15 12 10 9 7 7 6 5 6 8 14 16 16 18 17 15
30 29 30 27 24 22 19 18 17 19 20 22 22 25 25 25 24 24 25 25 25 24 23 22 20 18 16 15 15 13 11 11 13 11 8 7 10 16 16 15 17 16 18
27 26 25 24 23 21 20 18 19 19 20 21 22 27 27 26 25 24 25 24 23 22 22 22 20 18 17 16 14 13 13 17 16 14 12 13 16 20 20 17 18 18 19
26 26 26 23 22 23 21 20 20 21 21 20 20 22 22 21 21 21 21 21 22 23 22 22 19 19 18 17 15 14 16 17 18 16 15 17 20 22 22 18 18 16 17
22 23 23 24 23 21 20 19 20 22 19 19 19 20 20 19 20 21 21 22 24 24 23 21 20 19 18 18 18 17 15 14 18 19 19 21 21 21 22 22 17 19 18
24 22 22 21 21 21 20 21 21 19 18 17 19 19 19 20 19 20 23 23 24 23 20 19 20 21 22 22 21 20 20 19 18 21 24 23 23 21 20 22 22 21 20
21 21 22 22 21 20 19 19 19 20 19 18 18 17 18 18 18 20 21 22 22 23 22 21 19 20 21 21 22 22 24 23 22 24 26 26 25 24 24 23 23 21 20

GFSGL_925_spd_045.txt.gz
Wind_Speed
28 28 29 31 32 32 33 33 34 35 34 35 34 35 35 34 31 34 36 31 30 29 29 28 26 23 21 20 19 19 21 17 12 17 20 30 12 22 19 23 22 23 26
28 29 30 30 31 31 32 33 33 35 36 36 35 34 34 32 31 33 34 31 29 28 29 30 26 23 24 22 20 21 19 21 17 14 19 19 18 20 18 19 21 22 23
29 29 30 30 31 32 33 34 35 34 35 36 36 35 35 34 33 32 32 31 29 30 29 27 25 24 25 21 21 20 21 20 17 18 16 15 17 14 16 16 19 20 21
29 29 31 32 33 33 35 36 35 33 35 36 36 36 36 34 32 33 30 30 29 29 32 28 27 27 29 21 20 19 20 19 19 14 13 16 16 20 17 18 17 19 19
29 31 33 33 35 35 35 37 34 36 35 35 37 36 35 35 33 31 32 30 30 33 29 29 27 28 25 20 18 17 18 19 17 15 12 16 16 15 18 17 16 19 21
31 32 33 34 33 36 36 33 38 38 37 35 36 34 32 33 36 37 35 29 28 31 28 26 31 27 22 22 25 25 25 23 16 17 15 15 20 20 21 21 19 15 8
30 33 35 34 36 34 39 37 39 37 38 36 36 31 34 34 35 36 35 33 32 30 31 37 35 23 25 23 21 24 26 29 30 23 18 21 21 21 23 23 23 21 18
33 35 35 33 36 37 38 38 38 35 36 35 30 31 32 32 32 32 31 32 31 32 31 31 20 22 23 16 16 20 20 19 22 30 29 27 26 24 24 23 26 25 21
31 34 34 35 37 37 38 39 36 35 29 29 25 28 28 28 28 27 27 27 28 27 29 30 27 23 26 19 19 21 20 21 24 26 26 32 29 25 23 17 20 18 12
32 35 37 36 38 38 39 38 36 31 28 28 28 27 29 29 27 27 26 24 25 24 24 26 33 27 22 21 23 23 21 21 22 26 28 26 31 28 25 25 19 19 15
35 37 36 39 38 38 38 36 34 30 28 27 25 25 25 25 23 24 24 25 21 21 22 24 26 21 22 27 30 28 26 24 26 29 26 19 23 28 29 26 24 25 21
36 37 38 39 37 37 37 36 31 28 26 25 23 24 21 22 22 23 26 28 26 24 22 20 20 21 23 23 25 28 28 30 27 24 19 20 19 22 24 25 30 27 22
36 37 38 38 36 36 33 32 30 25 23 21 19 19 20 20 21 24 27 28 29 29 26 25 27 27 25 26 29 28 27 27 27 22 19 20 22 23 24 24 26 22 15
35 37 36 34 37 36 33 30 28 24 20 20 19 19 20 20 21 22 22 23 23 26 26 26 28 28 29 27 25 27 27 25 23 18 18 21 21 22 23 21 20 20 18
35 34 34 32 32 33 32 31 28 27 24 22 22 22 20 21 26 28 27 23 21 20 20 20 19 18 19 22 24 25 25 22 24 21 23 19 21 18 20 22 21 19 14
32 33 32 31 32 30 29 30 28 21 23 25 26 25 28 33 44 43 35 32 29 28 21 19 16 19 25 23 19 19 19 22 23 22 19 19 19 17 17 17 18 17 18
33 32 32 30 29 28 27 25 19 28 25 26 10 13 13 26 34 36 11 28 35 31 18 6 5 11 13 15 16 16 17 18 21 19 14 14 18 20 18 15 16 18 18
33 33 29 29 27 26 25 22 18 16 15 20 23 24 26 29 31 33 34 36 33 29 21 19 18 17 18 20 20 17 16 16 14 11 12 11 10 11 13 18 20 19 15
30 30 31 27 25 26 24 16 15 15 16 18 21 25 23 30 33 33 31 29 25 23 23 22 21 21 20 20 18 16 14 11 6 4 5 9 13 16 17 17 20 19 19
30 31 32 26 25 24 21 18 16 17 19 20 22 22 22 24 27 27 28 28 27 25 25 25 25 23 21 19 16 14 11 6 4 6 9 13 15 16 15 16 19 19 17
28 29 30 25 24 22 19 18 16 17 18 19 21 24 23 22 22 23 25 26 26 26 26 25 24 23 21 18 16 16 13 9 5 3 3 8 12 15 15 19 20 21 20
26 27 26 23 22 22 19 18 17 17 18 17 18 23 26 25 22 22 24 25 26 25 24 23 22 20 20 18 16 15 14 13 11 7 6 9 15 19 13 19 21 22 21
25 26 25 23 22 22 20 19 19 18 19 18 18 19 20 20 21 22 23 24 24 24 24 22 20 19 20 20 17 17 17 15 12 7 9 15 20 16 20 21 21 21 20
23 24 23 22 22 21 20 19 19 20 19 19 19 20 19 20 21 22 22 23 23 24 23 23 26 26 25 22 22 23 20 15 12 12 13 20 25 22 20 20 20 21 21
19 22 23 21 20 19 19 19 18 18 18 18 19 20 20 20 20 21 21 23 23 23 24 24 23 24 28 28 26 25 22 20 16 15 17 20 24 25 22 22 22 20 19
18 18 20 21 20 19 18 17 17 17 18 17 19 20 21 19 18 18 18 20 21 23 23 23 24 24 24 26 26 23 26 25 25 20 20 22 25 26 24 22 21 22 20

GFSGL_925_spd_051.txt.gz
Wind_Speed
18 21 22 25 28 29 28 29 31 26 24 30 30 32 33 33 31 30 30 31 32 32 29 30 31 30 33 33 34 34 26 23 14 17 24 28 23 23 19 21 23 29 29
21 24 27 28 23 25 32 29 26 29 31 32 34 31 32 33 30 28 30 31 31 32 31 30 33 28 33 32 30 33 29 30 24 8 23 28 22 20 20 24 17 23 31
26 27 27 26 30 32 23 32 33 34 33 32 33 31 34 33 33 33 33 33 32 32 32 28 31 28 28 26 30 28 30 26 24 16 19 21 20 13 11 21 22 11 21
26 26 26 28 24 26 31 32 34 33 34 33 34 35 35 35 33 35 34 34 34 33 33 29 29 26 29 22 28 21 25 25 25 17 16 16 16 14 11 9 16 14 14
21 27 29 28 30 32 32 32 33 33 34 35 35 36 35 33 35 35 30 36 33 30 27 27 26 29 31 29 27 22 23 21 20 17 12 11 11 10 14 8 7 18 21
27 27 30 31 32 32 31 32 36 35 35 36 36 35 34 35 36 35 39 34 32 33 28 28 31 30 32 30 27 24 15 18 25 17 6 7 16 17 16 13 9 5 4
26 29 30 29 32 31 32 36 37 35 36 35 35 34 35 35 35 38 34 34 29 28 26 27 26 26 29 24 29 24 19 19 13 10 10 12 17 20 16 14 12 13 9
27 27 26 30 32 33 36 36 36 36 36 35 36 36 35 35 35 31 32 29 27 21 22 25 24 22 24 22 21 19 11 20 20 25 28 35 17 11 14 15 12 13 14
25 25 29 32 33 36 37 37 37 37 36 36 37 35 33 34 31 33 29 26 23 20 21 20 23 23 21 22 21 16 17 15 15 32 32 21 16 13 15 15 15 9 6
24 28 31 33 35 37 38 37 37 37 38 36 37 36 35 34 32 29 27 24 20 18 20 20 19 20 22 22 21 15 10 18 19 27 20 16 14 12 15 19 21 16 8
28 30 32 36 35 37 36 37 37 35 36 36 35 35 32 31 29 27 25 24 20 18 17 17 21 18 20 20 19 13 23 27 19 17 19 18 16 15 19 19 24 27 21
29 31 34 36 36 35 36 35 35 34 33 34 34 31 27 26 26 24 23 23 22 18 17 19 18 16 16 16 17 20 20 20 20 20 21 19 18 18 20 21 21 28 28
29 32 34 36 35 34 33 34 32 30 29 30 28 24 24 23 23 24 23 23 23 18 17 17 16 14 12 9 11 14 15 15 20 20 19 18 18 18 18 18 21 25 26
29 32 33 33 36 35 33 29 27 26 27 24 23 21 20 22 22 24 25 23 21 19 17 18 18 16 14 12 10 10 8 11 13 14 16 17 18 19 19 20 23 23 20
29 31 31 31 31 32 30 28 28 28 26 23 23 25 23 23 26 28 25 26 22 22 11 10 13 14 14 15 16 15 16 15 13 15 18 20 21 21 20 22 22 20 15
28 29 30 31 30 28 28 29 31 23 24 25 28 30 29 34 39 32 13 21 24 17 13 9 10 13 14 14 15 17 19 17 18 18 20 20 19 19 17 18 18 16 15
27 29 30 29 27 26 26 25 20 22 21 24 27 29 32 36 40 27 29 25 19 15 8 7 9 11 13 14 17 20 17 16 18 18 20 20 20 20 17 17 18 17 16
27 29 28 27 26 25 24 23 20 18 18 22 25 27 29 31 36 36 26 24 18 17 12 10 9 2 12 17 17 17 19 22 22 21 20 23 23 21 17 18 19 19 17
25 27 28 26 25 25 22 20 18 18 17 19 21 23 24 25 29 31 31 26 19 18 15 14 12 11 11 9 7 9 17 20 21 21 21 20 21 21 20 20 19 19 16
24 27 27 25 24 23 21 18 17 16 16 17 19 19 20 23 23 23 25 23 21 19 16 15 14 13 12 10 9 12 14 14 14 16 17 18 21 22 21 19 17 16 16
22 25 27 24 22 22 19 17 17 16 16 17 18 22 23 21 19 21 22 22 21 20 19 17 16 15 14 13 12 8 5 5 8 9 10 14 15 16 18 19 18 16 13
21 23 24 23 22 21 19 17 17 16 17 17 18 20 24 22 19 20 21 21 22 21 22 20 17 16 14 12 9 5 1 4 8 12 14 15 14 14 14 14 13 17 16
20 22 23 22 22 22 19 17 16 17 16 17 17 18 19 20 21 21 21 21 22 21 21 21 22 20 15 14 12 8 4 5 10 11 15 17 18 18 18 18 21 21 19
18 20 21 21 21 20 18 17 18 18 18 17 17 17 19 20 19 19 21 22 23 24 23 23 23 21 20 21 18 13 3 6 11 15 15 18 18 20 20 19 21 22 22
16 19 19 21 20 19 19 18 17 17 17 17 17 18 20 20 19 19 21 24 25 25 25 25 27 25 23 24 26 20 8 7 11 13 15 16 15 19 23 23 23 23 24
14 17 18 19 19 19 19 18 17 16 16 18 18 19 20 19 18 19 22 25 26 25 25 25 28 29 27 28 32 23 15 11 14 14 17 25 27 26 26 26 25 22 22

GFSGL_925_spd_057.txt.gz
Wind_Speed
12 15 19 18 17 20 24 28 28 32 36 36 34 33 31 31 31 31 31 31 30 29 28 30 29 26 27 25 26 28 27 24 12 27 26 27 32 33 29 27 24 22 25
15 17 16 19 24 28 28 30 31 36 35 33 33 33 31 31 32 31 30 30 31 30 29 30 30 27 28 26 26 26 27 28 22 16 21 26 29 28 27 26 28 24 26
16 16 21 26 28 28 31 32 36 33 33 33 33 33 31 33 32 31 31 31 31 32 32 31 29 28 28 27 28 28 29 29 23 19 21 28 35 31 26 25 23 26 24
17 19 26 28 28 30 34 35 32 31 32 32 32 31 33 33 33 33 32 33 33 32 32 31 33 29 28 28 29 30 28 27 24 18 24 23 28 23 21 20 17 26 25
19 25 27 29 32 36 35 32 32 32 30 34 34 33 33 33 33 32 32 32 32 32 32 30 29 31 32 31 31 31 28 25 21 16 20 16 17 9 15 17 20 24 20
22 24 27 34 33 32 32 32 33 29 35 33 33 33 34 34 36 38 38 36 33 32 31 31 30 33 30 31 32 34 33 30 29 22 20 14 18 16 12 13 12 8 3
20 26 29 31 32 30 32 32 30 33 33 33 33 34 35 36 38 40 40 39 34 31 30 29 24 24 25 27 27 27 30 31 28 33 18 22 21 23 12 18 17 15 11
25 27 29 31 29 31 32 31 32 33 33 33 33 34 35 37 39 39 39 36 33 31 27 26 25 25 26 26 25 27 27 29 24 23 18 30 33 27 24 30 29 20 13
27 29 30 31 31 32 31 31 33 33 33 33 33 33 35 37 37 36 34 32 27 29 29 23 25 27 27 25 24 24 26 22 20 20 21 17 20 15 19 22 20 20 3
26 30 32 32 30 31 31 32 33 33 31 31 33 34 36 35 35 34 34 31 22 21 20 21 23 24 24 23 23 22 19 22 20 18 18 20 18 15 16 19 23 18 9
28 32 33 32 30 29 31 31 30 32 30 31 31 32 35 33 36 32 36 35 23 19 19 18 24 21 20 22 22 23 22 20 24 21 19 19 15 18 17 18 22 25 16
30 32 33 31 26 29 29 32 31 28 26 28 27 27 26 27 31 36 39 40 32 19 19 20 21 17 16 17 17 15 21 23 24 20 18 13 18 15 18 18 16 16 13
30 32 33 26 27 26 28 30 28 26 24 25 20 25 24 31 32 37 45 36 22 12 17 18 16 14 12 11 12 13 16 20 21 17 16 17 20 18 18 16 13 13 12
30 31 26 27 29 27 27 26 24 24 25 19 22 23 25 28 31 35 32 22 10 5 13 14 13 11 8 6 4 7 13 13 18 16 19 24 19 16 15 14 15 15 15
28 27 24 25 26 26 25 26 26 26 26 24 22 24 22 24 31 32 24 16 10 9 5 8 5 5 3 3 5 5 11 3 12 14 18 17 16 14 12 12 14 12 12
24 22 25 25 26 23 25 27 24 22 22 22 23 25 25 26 30 29 25 19 11 8 7 3 2 3 5 4 3 6 6 2 8 10 12 14 16 15 14 14 15 16 14
22 23 25 24 24 24 24 23 22 24 22 20 23 23 24 26 28 30 26 20 21 12 9 5 1 2 4 7 7 7 7 10 10 12 14 16 16 16 13 12 12 17 17
23 25 23 23 23 23 22 22 20 18 18 21 22 20 22 24 24 26 27 26 23 22 15 12 8 6 4 6 8 11 11 11 13 16 17 16 14 11 13 13 14 14 14
24 24 23 23 23 24 22 20 19 18 17 18 20 19 22 21 21 22 23 21 17 17 17 14 14 11 10 5 5 10 15 14 14 15 18 17 18 15 13 16 15 15 16
24 21 22 23 23 22 21 18 17 17 17 16 16 17 19 20 21 22 23 21 19 18 17 16 16 12 11 6 5 3 11 18 18 17 17 20 19 16 15 16 15 14 16
22 21 22 24 22 21 19 17 17 17 16 15 16 20 22 19 19 20 19 19 20 20 19 17 15 13 11 9 6 6 4 6 18 21 19 18 16 17 17 18 21 20 17
19 19 21 21 22 20 18 18 17 17 16 16 16 17 20 19 19 20 20 20 22 20 20 19 17 16 13 12 8 6 7 5 4 18 22 23 19 21 23 18 19 19 19
17 19 20 21 21 20 19 18 18 17 16 16 18 17 18 17 18 20 22 24 25 25 25 24 22 20 18 14 8 8 10 11 10 9 21 22 20 20 21 20 19 19 20
15 18 19 20 21 19 18 17 18 18 17 17 17 17 19 20 22 23 22 23 25 26 27 28 26 25 22 18 10 7 11 15 15 13 13 21 19 21 20 21 22 21 19
14 17 17 19 19 20 19 18 18 17 18 15 16 18 18 20 21 23 23 24 26 27 28 30 30 29 26 21 14 7 15 18 20 17 16 15 16 18 18 19 17 18 16
13 14 16 18 18 19 19 18 18 17 16 16 16 18 18 21 22 24 24 25 29 28 31 32 33 31 30 26 10 9 15 19 21 17 17 17 18 17 19 19 19 18 19

GFSGL_925_spd_063.txt.gz
Wind_Speed
6 10 13 15 16 18 21 22 24 25 24 25 25 25 25 24 24 25 25 26 26 27 26 27 27 26 27 26 25 25 26 27 17 23 25 24 25 22 23 24 24 24 26
10 13 14 16 18 20 21 23 25 25 25 25 25 25 24 25 25 25 27 26 27 28 27 27 28 28 28 27 26 27 27 27 27 22 26 24 24 24 24 25 27 27 27
11 14 16 18 21 21 23 24 25 25 25 25 24 25 26 26 27 27 28 29 28 29 29 28 30 29 29 28 27 26 26 28 29 25 24 24 25 25 25 25 24 25 26
14 16 18 20 22 23 25 26 25 24 25 25 24 26 27 27 28 29 29 29 30 31 32 32 33 32 32 31 30 29 29 28 28 26 23 22 22 22 24 24 24 23 24
15 18 20 23 24 25 24 24 25 24 25 26 26 25 25 29 28 28 30 30 30 32 34 35 36 38 38 37 32 32 30 28 26 24 22 22 21 21 22 21 23 22 25
18 20 23 23 22 23 24 25 26 26 25 25 24 26 28 28 29 32 33 33 32 33 33 34 35 39 42 39 40 39 38 35 31 23 21 19 22 22 22 23 22 20 12
18 20 22 22 23 23 24 25 25 25 25 26 26 28 29 30 31 33 34 35 34 35 33 32 31 27 30 37 38 34 34 32 29 34 27 26 23 26 23 22 24 22 22
19 20 21 22 23 24 25 25 25 24 26 28 28 29 30 32 31 33 34 35 34 36 36 37 37 35 28 30 29 27 26 26 23 23 22 22 25 26 23 25 25 22 20
18 19 21 23 24 25 25 25 25 27 27 29 28 29 29 32 32 33 35 35 34 36 39 40 38 33 29 29 27 23 24 24 21 23 24 23 26 26 23 24 22 14 8
17 20 22 23 23 25 24 25 26 27 27 28 29 30 29 32 34 35 33 35 31 34 31 38 38 34 24 22 23 19 16 20 19 19 19 22 20 25 28 31 22 14 15
21 23 23 23 24 22 24 24 26 27 28 28 28 29 30 28 28 27 32 36 33 30 26 28 12 14 15 18 17 17 20 19 19 20 18 17 17 17 21 24 24 25 14
23 24 23 24 22 22 24 26 27 26 24 24 26 26 23 25 22 24 30 33 34 26 18 12 6 4 6 7 10 11 16 19 19 17 14 12 16 16 18 23 25 27 21
23 23 24 23 22 23 25 26 26 23 22 23 22 20 24 17 22 23 28 32 32 22 12 8 6 5 5 5 5 4 7 10 10 10 12 11 10 11 14 14 21 20 17
21 22 22 22 24 24 24 24 24 22 22 21 18 19 22 18 22 24 25 27 28 22 14 8 6 3 2 2 1 8 5 8 15 13 9 7 6 9 13 18 14 15 11
19 20 21 21 25 24 23 22 24 24 23 23 21 22 16 18 23 26 26 26 26 22 11 9 6 4 2 1 3 9 2 2 10 10 8 7 7 5 11 17 17 10 13
18 19 21 22 24 23 22 25 24 22 22 21 20 22 20 23 26 26 25 24 23 22 8 8 7 7 6 5 3 7 10 5 11 11 9 8 8 8 10 13 11 4 12
18 20 20 21 23 22 23 21 21 25 21 18 18 21 20 26 26 23 23 21 20 20 16 14 9 8 8 8 6 3 5 8 7 10 11 12 13 11 16 15 12 6 9
20 19 19 21 21 22 21 21 20 18 18 19 20 20 19 24 24 22 21 19 19 19 17 15 13 12 10 8 6 5 3 5 7 8 12 17 14 11 12 13 12 9 9
19 17 22 20 20 22 21 20 19 17 17 15 20 20 20 22 21 21 21 19 17 16 17 17 15 12 10 7 5 4 3 4 6 5 8 10 11 11 11 11 12 10 11
19 20 19 19 20 21 20 18 17 16 15 17 16 20 23 22 21 23 22 20 19 17 17 16 15 12 11 9 6 3 5 5 6 6 6 7 9 9 10 12 12 13 14
16 17 18 19 18 21 20 18 17 16 15 14 15 18 23 21 20 21 21 21 20 19 18 17 16 14 10 9 7 4 5 5 9 9 8 9 11 11 11 14 15 14 14
18 14 16 18 19 19 20 20 18 16 17 16 17 17 20 19 21 23 23 22 22 22 20 18 17 14 12 10 9 8 7 7 6 14 15 13 14 16 13 11 15 15 15
13 15 16 17 19 19 20 20 19 18 18 19 20 18 20 21 22 22 24 24 25 26 25 22 20 17 13 12 11 12 12 11 10 11 17 16 17 17 15 13 13 14 16
12 13 14 16 19 19 19 19 19 19 21 20 21 17 21 22 23 26 26 27 27 27 27 25 22 18 13 12 13 15 17 16 14 13 15 19 18 20 18 15 14 16 15
11 14 14 17 16 18 19 19 19 19 20 22 19 20 21 23 26 27 28 29 29 29 28 27 24 21 17 12 14 17 19 19 18 17 16 20 23 22 21 19 16 19 18
11 12 13 17 18 18 17 19 19 19 21 21 19 21 22 24 26 28 30 31 33 32 32 29 27 24 15 8 11 19 20 22 22 20 18 18 22 21 20 19 21 18 19

GFSGL_925_spd_069.txt.gz
Wind_Speed
5 6 8 10 12 13 15 17 19 21 22 24 25 26 26 26 26 27 27 27 27 27 24 24 25 25 26 26 25 25 24 24 17 24 27 28 30 30 29 25 24 25 26
7 9 11 12 13 16 18 20 21 23 23 24 26 26 27 27 27 27 27 27 26 25 25 25 25 25 28 28 26 26 27 26 26 21 24 23 27 31 31 28 24 26 26
10 11 12 14 16 18 20 21 22 23 25 26 26 27 28 28 27 26 26 26 26 27 26 27 29 28 28 28 30 28 28 30 30 28 24 24 25 26 30 32 28 25 27
10 12 14 16 18 19 20 21 22 24 25 26 26 27 27 27 26 24 26 27 27 27 28 30 31 31 33 33 32 32 32 31 31 28 25 25 23 25 25 22 22 27 26
11 14 16 18 19 20 21 22 23 24 25 26 27 26 25 26 25 25 26 28 30 31 33 35 36 38 40 38 37 35 34 33 30 27 24 24 23 22 22 20 23 23 25
14 17 18 19 20 21 22 24 25 25 26 26 26 25 26 27 27 30 31 32 32 31 31 31 32 34 36 37 38 40 40 32 35 28 26 23 26 27 24 22 20 18 9
16 17 19 19 21 22 23 25 26 27 27 26 25 24 26 28 29 31 30 31 30 31 31 30 30 30 32 33 37 40 42 41 39 35 33 29 28 29 25 22 21 20 17
16 18 19 20 22 23 24 26 26 26 25 25 26 27 25 28 30 29 31 31 27 29 30 28 31 32 32 37 39 39 37 36 32 28 24 32 32 23 22 21 21 20 22
17 18 20 21 23 24 25 26 26 24 25 27 26 27 27 30 28 30 29 30 28 27 28 26 29 32 37 33 35 34 37 33 29 27 26 25 24 30 29 25 23 19 11
17 19 20 21 23 25 26 25 23 24 25 26 26 25 26 28 29 29 29 28 24 24 28 24 28 31 29 27 27 20 17 16 21 19 18 18 20 28 30 31 25 18 15
17 19 20 22 23 24 24 23 24 24 24 24 24 25 26 26 30 27 25 25 25 26 24 26 28 32 28 21 17 8 3 6 11 16 17 18 17 21 29 32 32 28 21
17 19 21 22 23 23 22 24 23 23 22 23 24 25 24 26 21 23 24 27 29 25 24 23 27 32 23 16 13 7 6 7 12 15 16 15 15 17 19 22 27 30 29
18 20 21 22 23 22 22 25 23 21 22 22 22 23 19 22 23 20 24 26 26 26 23 26 30 27 21 15 7 5 5 6 10 13 14 15 16 17 15 15 20 22 25
18 20 21 22 22 21 22 21 21 22 22 21 20 18 20 17 16 20 22 23 24 23 24 25 27 19 15 14 7 5 10 10 12 11 15 15 13 16 19 18 15 17 16
18 20 20 20 21 22 22 22 20 22 23 25 22 21 23 17 20 23 25 26 24 23 22 22 21 17 14 11 8 7 6 13 11 14 10 7 9 9 10 16 18 18 20
18 19 20 20 19 21 23 23 22 22 23 23 23 23 23 22 26 24 23 25 24 20 16 15 16 15 15 14 14 12 8 14 13 12 7 8 8 12 12 10 13 13 12
17 19 19 18 20 21 20 20 22 28 24 21 21 22 22 23 25 23 24 24 21 15 11 13 13 14 15 13 15 12 12 17 13 8 6 4 0 4 10 5 5 9 8
16 17 16 17 20 21 20 19 21 21 21 22 22 23 24 25 26 22 22 22 16 14 11 12 13 13 14 13 12 13 14 16 12 5 1 3 4 3 6 3 9 8 11
16 16 17 18 19 22 20 18 21 21 20 21 22 24 21 24 23 22 21 16 15 15 13 13 13 14 15 14 12 12 14 14 14 5 8 10 7 4 7 8 9 13 13
13 15 17 17 20 19 18 21 20 20 20 19 20 21 22 21 21 20 19 17 15 15 15 15 14 14 14 13 13 12 11 13 14 8 9 4 4 6 6 9 7 8 11
12 15 15 17 18 17 17 18 20 20 20 20 19 23 24 23 18 20 21 20 21 22 22 20 19 16 15 14 11 11 8 9 10 11 3 4 4 5 7 8 9 10 7
13 15 14 16 18 17 18 18 20 20 19 21 20 22 23 20 21 21 22 23 25 25 24 23 20 18 16 15 12 10 8 8 8 8 8 2 2 3 7 8 10 10 10
13 13 14 17 16 19 18 21 19 19 20 21 21 20 22 21 23 23 25 27 28 28 28 25 22 18 16 16 15 14 12 9 10 9 5 4 4 6 5 9 11 11 13
12 12 14 16 14 17 20 20 18 19 22 20 22 22 22 24 25 26 29 31 31 30 28 26 22 17 16 16 16 16 16 13 11 12 6 4 7 6 7 5 8 12 13
11 13 14 16 14 18 21 21 19 19 20 21 22 22 24 26 26 29 32 33 32 32 30 27 21 14 12 15 18 17 17 16 16 14 10 8 9 9 10 6 6 12 14
11 13 13 15 15 15 19 19 19 20 21 21 21 23 25 26 28 31 33 35 36 34 33 30 23 15 10 13 19 21 21 19 19 19 13 12 14 12 11 11 7 9 15

GFSGL_925_spd_072.txt.gz
Wind_Speed
3 5 7 9 10 11 14 16 17 18 20 21 22 24 25 25 25 26 27 27 27 27 26 26 26 25 26 27 27 26 26 26 16 29 26 26 28 30 30 32 31 27 26
4 7 9 11 12 13 15 17 19 21 21 23 24 25 26 26 25 26 27 26 27 26 24 25 26 24 25 25 25 26 27 28 27 24 24 25 28 30 32 31 28 28 26
7 7 11 13 14 16 17 19 20 21 23 24 25 26 26 26 27 27 26 25 24 25 27 27 28 28 27 27 28 28 27 29 29 28 26 27 28 28 29 31 30 31 30
7 7 11 14 14 16 19 20 20 22 24 26 26 27 27 28 20 23 26 27 28 26 26 28 30 30 31 32 32 34 34 31 29 29 27 26 26 28 28 27 22 24 26
8 11 14 14 17 19 19 21 22 24 25 26 27 28 27 21 21 28 27 28 28 29 29 30 32 34 36 39 37 33 34 33 31 30 27 27 25 24 25 26 25 22 25
11 13 16 17 18 18 20 21 23 25 26 27 27 26 23 25 28 29 30 30 29 29 28 28 27 34 34 33 34 35 36 31 33 30 26 23 28 30 30 26 22 17 7
14 14 17 18 18 20 21 23 24 26 25 27 21 26 29 27 29 29 32 31 27 27 28 26 28 28 28 30 33 35 35 37 40 37 29 31 28 31 29 25 24 22 22
15 16 17 17 20 22 23 24 26 25 26 20 26 25 27 29 29 31 30 29 27 25 26 26 24 28 28 29 33 34 35 38 39 39 36 27 33 30 31 29 26 24 24
16 15 17 20 22 23 25 25 26 27 21 23 26 26 27 29 30 29 29 27 27 25 23 25 26 29 28 32 32 33 27 30 32 38 40 28 26 28 31 25 21 17 11
13 16 18 20 23 25 25 25 29 20 23 25 26 25 26 27 28 28 29 25 23 18 24 24 24 26 27 32 31 31 22 22 20 7 18 19 19 22 30 34 27 21 16
15 17 20 21 24 22 25 25 18 23 24 24 24 24 24 26 28 29 24 26 20 24 22 24 24 25 29 32 33 25 22 18 10 7 9 12 12 14 19 24 31 25 21
16 18 21 22 21 23 22 18 23 24 22 22 22 23 24 25 21 22 23 23 24 24 22 24 27 30 33 31 29 19 17 12 11 9 11 15 17 18 19 22 28 30 28
16 19 21 21 21 19 17 23 24 21 20 20 21 22 22 22 25 19 22 23 21 25 23 26 26 30 30 25 20 10 5 8 9 9 16 18 18 19 20 20 23 29 32
16 20 21 21 20 17 19 22 21 20 20 22 20 18 20 22 21 23 21 18 21 22 24 17 23 25 22 14 11 8 9 10 14 16 16 17 14 16 20 20 20 21 21
16 19 20 19 19 18 21 21 21 19 23 26 23 22 21 20 23 27 25 22 24 24 22 19 20 20 19 17 16 15 7 13 14 13 13 14 12 15 18 19 20 16 14
16 18 19 20 17 20 23 22 20 20 23 25 24 25 25 26 27 28 29 21 24 23 13 13 13 15 16 16 16 17 13 17 14 13 13 8 9 10 13 16 20 19 18
15 18 19 16 17 20 21 20 22 23 21 22 22 24 24 27 27 26 25 25 21 17 12 12 11 13 14 15 15 15 16 19 22 16 13 6 8 11 4 3 6 17 17
15 17 15 17 19 20 20 20 19 22 21 24 24 23 23 26 24 24 23 21 18 16 14 12 12 12 14 16 16 16 17 18 19 19 10 3 6 5 3 6 13 13 11
15 12 17 17 18 21 19 18 17 20 21 22 24 23 24 24 24 21 21 19 17 16 15 14 13 14 13 16 16 17 15 16 19 19 4 2 3 4 2 6 10 17 7
13 14 17 13 21 19 18 20 16 18 21 20 22 19 25 23 21 22 20 20 18 17 17 15 15 15 14 14 16 16 15 16 16 16 10 10 10 2 6 10 13 14 13
15 17 13 17 20 19 19 16 22 18 20 22 19 24 25 23 21 21 22 22 21 22 21 19 17 16 14 14 15 15 14 12 13 13 15 14 9 9 10 11 10 13 16
15 15 15 16 20 18 18 19 21 20 20 21 21 23 25 22 22 23 23 25 26 27 27 24 20 18 15 14 14 14 14 12 11 9 11 11 9 8 9 9 10 13 16
14 14 15 17 19 17 19 19 21 20 20 21 21 23 23 24 25 25 27 29 29 29 29 26 22 16 14 14 14 14 14 13 10 7 6 8 8 7 7 8 9 12 14
14 14 15 18 18 17 18 19 20 22 22 21 23 22 24 26 27 28 30 31 31 30 28 26 22 15 13 14 15 15 16 15 12 7 2 3 2 2 7 7 8 10 12
13 15 15 18 18 19 18 19 20 20 21 22 22 23 26 27 28 30 31 33 33 31 30 28 22 13 9 13 16 17 17 15 14 11 8 4 2 4 5 8 11 11 13
14 14 15 17 19 20 19 20 20 21 22 21 25 24 26 28 29 30 32 35 36 34 33 30 24 15 8 11 17 19 18 18 18 18 15 10 7 7 4 7 9 12 13

GFSGL_925_spd_075.txt.gz
Wind_Speed
4 5 5 8 9 10 11 11 11 13 17 19 20 22 23 24 25 26 26 26 26 26 27 27 29 27 25 25 26 26 27 24 15 36 25 28 31 33 35 32 30 29 24
7 5 3 4 7 10 12 12 16 20 21 22 23 25 26 27 27 27 28 28 25 27 28 24 24 26 26 25 22 24 27 27 27 26 26 27 30 34 35 34 34 31 27
2 2 4 7 10 11 11 16 20 21 24 25 25 26 28 29 30 30 22 19 25 30 28 28 28 27 25 24 26 27 27 28 28 28 27 29 30 30 28 32 33 34 34
3 3 8 9 8 13 17 19 20 20 22 25 25 25 28 28 24 17 21 27 28 25 26 26 26 27 28 30 31 31 33 32 30 29 27 28 28 29 25 26 24 26 31
5 7 7 10 13 17 16 17 19 21 24 23 27 26 20 19 20 25 29 28 25 28 28 29 28 30 32 35 33 30 28 31 32 27 26 27 25 25 24 27 24 23 28
9 11 11 14 16 13 16 20 22 23 25 25 26 23 23 29 29 27 27 29 28 28 25 25 24 28 31 29 30 28 30 27 23 23 26 23 28 28 30 27 23 17 7
13 12 14 15 12 17 21 22 24 25 25 26 25 20 26 27 27 27 28 29 27 24 26 26 24 23 24 26 31 31 30 32 32 34 29 25 30 33 31 28 26 24 25
13 15 14 12 19 22 23 25 26 25 26 26 19 23 27 26 27 29 29 27 24 25 23 24 24 26 29 27 30 29 30 29 31 33 32 35 34 36 34 33 29 26 26
15 14 12 16 20 24 25 27 25 25 18 19 23 25 23 27 27 28 28 27 25 22 22 18 22 26 28 28 30 26 28 32 31 30 31 33 36 40 35 30 25 21 11
14 11 14 19 22 24 25 23 23 14 23 26 23 22 24 26 27 27 28 26 21 18 21 21 21 24 27 28 29 27 27 27 30 29 26 24 25 34 32 36 28 21 13
10 13 16 20 22 21 23 20 16 25 26 24 24 24 24 23 27 26 26 23 20 23 15 20 22 25 27 28 30 30 30 32 26 22 19 17 9 4 10 23 30 24 20
12 13 16 20 20 22 16 16 25 24 25 23 21 22 22 24 23 24 25 25 23 19 20 23 29 27 28 31 31 27 28 7 10 12 14 15 12 12 14 11 16 29 27
10 13 17 19 21 16 15 23 27 24 20 19 20 22 21 23 24 24 24 25 21 21 20 23 26 22 25 26 22 10 1 4 8 12 14 15 18 17 14 15 18 21 25
12 14 17 19 18 15 18 26 24 20 18 20 19 21 22 21 22 22 25 23 18 18 19 18 15 18 19 19 19 17 7 9 12 15 16 20 18 15 16 19 22 24 19
11 15 18 19 18 15 20 24 21 20 19 23 21 23 20 21 19 28 27 23 22 20 22 17 15 16 17 16 16 15 16 13 14 18 17 16 16 17 20 21 22 19 18
13 16 18 17 14 18 23 21 18 18 21 23 23 24 24 23 25 27 23 23 21 22 15 14 14 13 12 15 15 14 14 16 18 21 18 15 14 12 11 14 19 19 18
13 15 16 13 16 20 21 19 19 21 19 21 21 23 22 24 25 24 23 23 19 17 13 15 15 12 11 12 14 16 16 17 20 21 21 17 14 15 15 18 21 19 19
12 14 12 19 17 21 21 19 19 18 18 23 23 22 21 23 24 22 23 21 19 17 15 15 15 14 13 14 14 15 16 17 20 21 22 16 12 7 7 10 16 15 20
13 12 16 18 17 19 19 18 17 21 16 21 23 22 23 25 20 21 21 19 19 19 17 15 15 14 15 15 15 15 15 16 19 20 17 13 12 15 15 11 9 20 17
14 14 14 13 20 21 18 17 17 19 18 19 20 23 26 20 22 23 22 22 21 21 20 19 17 16 16 15 15 15 15 15 17 18 19 19 12 8 8 11 11 8 20
14 15 11 18 20 20 17 17 18 19 18 20 20 22 24 22 23 23 25 25 24 23 24 22 20 17 16 15 14 14 13 13 14 15 18 18 14 12 8 13 16 14 14
14 15 14 16 21 19 15 18 18 18 20 20 22 22 23 23 23 25 26 26 28 27 28 26 22 18 15 14 14 14 11 11 13 11 14 16 16 11 11 13 13 16 16
13 13 15 15 20 17 18 17 18 19 19 20 22 21 22 24 25 27 29 29 30 29 28 26 22 17 14 14 14 15 14 12 11 9 10 12 13 12 9 11 11 15 14
13 14 14 16 17 18 17 17 18 19 20 21 21 22 23 26 27 28 32 31 31 31 29 26 22 14 11 12 13 15 15 14 13 9 5 8 10 9 7 9 8 12 15
13 14 15 17 17 17 16 18 20 20 21 21 22 23 25 27 28 29 31 31 32 31 30 29 24 15 9 11 14 16 15 14 14 10 4 2 2 7 7 8 8 10 13
13 13 15 17 17 17 17 20 21 21 22 22 23 24 26 26 29 30 31 32 34 33 32 30 24 15 8 9 14 17 17 16 16 13 7 4 5 3 8 8 7 9 13